www.pogodaiklimat.ru

Погода и климат >> Архив погоды >> Россия >> Ленинградская область >> Шлиссельбург


ПОГОДА в Шлиссельбурге

  • Прогноз погоды в Шлиссельбурге
  • Монитор погоды в Шлиссельбурге

АРХИВ ПОГОДЫ в Шлиссельбурге

Время (UTC), дата Ветер
(напр.,м/с)
 
Видим.   Явления Облачность Т
(С)
Тd
(С)
f
(%)
Тe
(С)
Тes
(С)
Комфортность P
(гПа)
Po
(гПа)
Тmin
(С)
Tmax
(С)
R
(мм)
R24
(мм)
S
(см)
09 12.02 Ю 2 4000 м слаб. снег 10/10 180 м
[Frnb Ns]
+0.9 +0.4 96 -3 -3 998.7 996.7
12 12.02 Ю 1 4000 м слаб. снег 10/10 180 м
[Frnb Ns]
+1.0 +0.5 96 -1 -1 999.2 997.2
15 12.02 З 1 4000 м слаб. снег 10/10 360 м
[Frnb Ns]
+0.6 0.0 96 -2 -2 1000.9 998.9 3
18 12.02 З 2 4000 м слаб. снег 10/10 270 м
[Frnb Ns]
-0.6 -1.2 96 -5 -5 1004.1 1002.1 +1.4 3
21 12.02 З 2 20 км {снег} 10/10 330 м
[St]
-2.3 -3.5 91 -6 -6 1007.4 1005.4
00 13.02 З 2 20 км {снег} 10/10 540 м
[Sc]
-4.1 -5.6 89 -8 -8 1009.4 1007.4
03 13.02 З 2 20 км 8/0
[Ac trans]
-5.7 -7.2 89 -10 -10 1010.5 1008.4 -5.7 0.3
06 13.02 З 2 20 км 10/10 400 м
[St]
-4.8 -6.5 88 -9 -9 1010.7 1008.6 -6.0 0.0 44
09 13.02 ЮЗ 2 20 км 3/3 600 м
[Cu hum]
-2.9 -4.9 86 -7 -6 1010.4 1008.3
12 13.02 Ю 1 20 км 5/5 600 м
[Cu Sc]
-1.0 -4.2 79 -3 -2 1010.1 1008.1
15 13.02 ЮЗ 2 20 км 8/8 750 м
[Sc]
-2.1 -4.3 85 -6 -6 1010.9 1008.9
18 13.02 Ю 1 20 км 9/9 900 м
[Sc]
-2.7 -4.7 86 -5 -5 1011.7 1009.7 -0.6
21 13.02 Ю 1 20 км {снег} 10/10 570 м
[Sc]
-2.0 -3.5 89 -4 -4 1012.2 1010.2
00 14.02 Ю 2 20 км {снег} 10/10 630 м
[Sc]
-1.7 -2.5 94 -6 -6 1012.2 1010.2
03 14.02 Ю 1 4000 м слаб. снег 10/10 300 м
[St]
-1.4 -2.2 94 -4 -4 1013.1 1011.1 -3.0 0.0
06 14.02 Ю 2 4000 м слаб. снег 10/10 240 м
[Frnb Ns]
-1.1 -1.5 97 -5 -5 1014.5 1012.5 -3.0 0.6 45
09 14.02 ЮЗ 2 10 км {снег} 10/10 240 м
[St]
+0.3 -0.5 94 -3 -3 1016.9 1014.9
12 14.02 З 2 20 км {снег} 10/10 270 м
[St]
+1.0 -0.1 92 -3 -3 1017.8 1015.8
15 14.02 ЮЗ 3 10 км слаб. ливневой снег 10/10 400 м
[Cb cap]
+0.9 -0.2 92 -4 -4 1018.0 1016.0 0.9
18 14.02 ЮЗ 4 20 км {ливн. осадки} 10/5 600 м
[Sc Ac und]
+0.8 -0.6 90 -5 -5 1015.7 1013.7 +1.4 0.3
21 14.02 ЮЗ 5-10
{10}
20 км 10/8 630 м
[Sc Ac und]
+1.6 -0.9 83 -4 -4 1012.0 1010.0
00 15.02 З 5-10
{10}
20 км 10/10 240 м
[St]
+2.2 +1.4 94 -3 -3 1010.4 1008.4
03 15.02 З 4
{11}
20 км 10/10 400 м
[St]
+2.4 +1.1 91 -3 -3 1009.7 1007.7 +0.7 0.0
06 15.02 З 3
{10}
20 км 4/3 600 м
[Sc Ac trans]
+2.7 +0.6 86 -1 -1 1009.6 1007.6 +0.8 44
09 15.02 З 3
{10}
20 км 8/0
[Ac trans Ci fib]
+3.9 -0.1 75 0 +2 1010.1 1008.1
12 15.02 З 3
{10}
20 км 6/0
[Ci fib]
+5.6 -1.4 61 +3 +4 1009.9 1007.9
15 15.02 З 3
{10}
20 км 8/0
[Ac trans Ci fib]
+4.3 -2.1 63 +1 +1 1010.3 1008.3
18 15.02 З 3 20 км 8/0
[Cs]
+3.0 -0.8 76 -1 -1 1011.5 1009.5 +5.6
21 15.02 З 1 20 км 9/0
[Ac trans]
+1.6 -0.9 83 -0 -0 1013.1 1011.1
00 16.02 З 2 20 км 10/0
[Ac trans Ci fib]
+0.7 -1.3 86 -3 -3 1013.9 1011.9
03 16.02 Ю 1 20 км 3/0
[Ci sp]
-0.7 -1.3 96 -3 -3 1013.2 1011.2 -0.7
06 16.02 ЮЗ 3 2000 м дымка 10/10 180 м
[St]
+0.8 +0.5 98 -4 -4 1011.7 1009.7 -0.9 43
09 16.02 ЮЗ 3 4000 м дымка 10/10 120 м
[St]
+0.7 +0.2 96 -4 -4 1009.5 1007.5
12 16.02 ЮЗ 4
{10}
20 км 4/0
[Ac trans]
+4.0 +0.3 77 -0 0 1005.4 1003.4
15 16.02 ЮЗ 3 20 км 8/0
[Ac trans Ci]
+4.3 -0.8 69 +1 +1 1002.0 1000.0
18 16.02 З 4 20 км 8/0
[Ac trans Ci]
+3.2 -1.9 69 -1 -1 999.9 997.9 +4.9
21 16.02 З 4
{11}
20 км 9/0
[Ac trans]
+2.9 -0.4 79 -2 -2 999.2 997.2
00 17.02 З 3
{12}
20 км 8/0
[Ac trans]
+2.0 -1.1 80 -2 -2 997.6 995.6
03 17.02 З 4
{11}
20 км 8/0
[Ac trans]
+0.5 -3.1 77 -5 -5 998.3 996.3 +0.5
06 17.02 З 3 20 км ясно +0.3 -4.4 71 -4 -4 998.9 996.9 +0.2 43
09 17.02 З 3
{12}
20 км 8/8 1470 м
[Cu Sc]
+1.6 -2.5 74 -3 -2 1000.9 998.9
12 17.02 СЗ 3
{10}
20 км 8/4 1000 м
[Cu Sc Ac trans]
+3.8 -6.2 48 +1 +1 1004.5 1002.5
15 17.02 С 3
{10}
20 км ясно +1.5 -8.5 47 -2 -2 1009.3 1007.3
18 17.02 СЗ 2 20 км 8/0
[Ac trans]
0.0 -9.4 49 -3 -3 1013.7 1011.7 +4.3
21 17.02 СЗ 2 20 км ясно -2.1 -9.7 56 -5 -5 1016.3 1014.3
00 18.02 С 2 20 км ясно -3.4 -9.0 65 -7 -7 1019.1 1017.0
03 18.02 штиль 0 20 км ясно -6.6 -9.8 78 -7 -7 1021.0 1018.9 -6.8
06 18.02 штиль 0 20 км 5/0
[Ci]
-7.8 -9.2 90 -9 -8 1022.5 1020.4 -7.8 42
09 18.02 ЮЗ 1 20 км 8/0
[Ac trans]
-3.0 -8.8 64 -5 -4 1023.7 1021.6
12 18.02 ЮЗ 2 20 км 9/0
[Ac trans]
-1.2 -8.3 58 -4 -4 1022.4 1020.4
15 18.02 Ю 2 20 км 10/0
[Ac und]
-1.2 -7.8 61 -5 -5 1019.9 1017.9
18 18.02 Ю 3 20 км 10/4 600 м
[Sc Ac und]
-1.3 -8.9 56 -6 -6 1016.1 1014.1 -1.1
21 18.02 Ю 4 20 км 10/0
[Ac und]
-0.3 -8.6 53 -5 -5 1011.5 1009.5
00 19.02 ЮЗ 5-10
{11}
20 км 10/8 700 м
[Sc Ac und]
+0.4 -5.5 65 -5 -5 1008.3 1006.3
03 19.02 ЮЗ 4
{11}
20 км 10/10 480 м
[St]
+0.5 -1.7 85 -5 -5 1006.5 1004.5 -1.5
06 19.02 ЮЗ 3 4000 м слаб. морось {дождь} 10/10 270 м
[St]
+1.1 +0.6 96 -4 -4 1005.0 1003.0 -1.5 0.4 42

 

Местоположение метеостанции Шлиссельбург (Ленинградская область, Россия): широта 59.93 долгота 31.00 высота над уровнем моря 16 м.

В архиве по умолчанию представлена погода в Шлиссельбурге за последнюю неделю. Архивные данные за месяц целиком и за предыдущие месяцы, начиная с января 2011 года, Вы можете получить, выбрав интересующий диапазон дат из раскрывающегося списка и нажав кнопку "Ввод!".


*Определитесь, кто Вы:
робот инопланетянин человек

Внимание! Время в таблицах - всемирное. Для получения местного времени необходимо прибавить поправку, которая равна 3 ч.

Смотрите также архив погоды в соседних городах и на ближайших метеорологических станциях:

Погода в Воейково (город Санкт-Петербург, Россия) (17 км)
Погода в Санкт-Петербурге (город Санкт-Петербург, Россия) (39 км)
Погода в Лисьем Носу (город Санкт-Петербург, Россия) (58 км)
Погода в Любани (Ленинградская область, Россия) (66 км)
Погода в Ломоносове (город Санкт-Петербург, Россия) (68 км)
Погода в Кронштадте (город Санкт-Петербург, Россия) (69 км)
Погода в Новой Ладоге (Ленинградская область, Россия) (76 км)
Погода в Сосново (Ленинградская область, Россия) (79 км)
Погода в Киришах (Ленинградская область, Россия) (79 км)
Погода в Белогорке (Ленинградская область, Россия) (81 км)

Пояснения к столбцам:

Ветер - указаны скорость ветра в м/с - средняя за 10 мин, порывы в срок и между сроками (в фигурных скобках) и направление, откуда дует ветер: С - северный, СВ - северо-восточный, В - восточный, ЮВ - юго-восточный, Ю - южный, ЮЗ - юго-западный, З - западный, СЗ - северо-западный.
Видимость - горизонтальная дальность видимости в метрах или километрах. При видимости от 1 до 10 км при отсутствии осадков обычно наблюдается дымка, при ухудшении видимости до 1 км и менее - туман. В сухую погоду видимость может ухудшаться дымом, пылью или мглою.
Явления - указаны атмосферные явления, наблюдавшиеся в срок или в последний час перед сроком; фигурными скобками обозначены явления, наблюдавшиеся между сроками (за 1-3 часа до срока); квадратными скобками обозначены град или гололедные отложения с указанием их диаметра в мм.
Облачность - указаны через наклонную черту общая и нижняя облачность в баллах и высота нижней границы облаков в метрах; квадратными скобками обозначены формы облаков: Ci - перистые, Cs - перисто-слоистые, Cc - перисто-кучевые, Ac - высококучевые, As - высокослоистые, Sc - слоисто-кучевые, Ns - слоисто-дождевые, Cu - кучевые, Cb - кучево-дождевые. Подробнее классификацию облаков см. в Атласе облаков (PDF).
T - Температура воздуха - температура, измеренная на высоте 2 м над землей.
Td - Температура точки росы - температура, при понижении до которой содержащийся в воздухе водяной пар достигнет насыщения.
f - Относительная влажность воздуха - влажноcть воздуха, измеренная на высоте 2 м над землей.
Te - Эффективная температура - температура, которую ощущает одетый по сезону человек в тени. Характеристика душности погоды. При расчете учитывается влияние влажности воздуха и скорости ветра на теплоощущения человека.
Tes - Эффективная температура на солнце - температура, которую ощущает человек, с поправкой на солнечный нагрев. Характеристика знойности погоды. Зависит от высоты солнца над горизонтом, облачности и скорости ветра. Ночью, в пасмурную погоду, а также при ветре 12 м/с и более поправка равна нулю.
P - Атмосферное давление - приведенное к уровню моря атмосферное давление.
Po - Атмосферное давление - измеренное на уровне метеостанции атмосферное давление.
Tmin - Минимальная температура - минимум температуры воздуха на высоте 2 м над землей.
Tmax - Максимальная температура - максимум температуры воздуха на высоте 2 м над землей.
R - Количество осадков - Количество выпавших осадков за период времени, мм. При наведении курсора мыши на число - период времени, за который выпало указанное количество осадков.
R24 - Количество осадков - Количество выпавших осадков за 24 часа, мм.
S - Снежный покров - Высота снежного покрова, см. При наведении курсора мыши на число - состояние снежного покрова и степень покрытия местности в баллах.